Regional Weather Roundup
Issued by NWS

Home | Current Version | Previous Version | Graphics & Text | Print | Product List | Glossary On
Versions: 1 2 3 4 5 6 7 8 9 10 11 12 13 14 15 16 17 18 19 20 21 22 23 24 25 26 27 28 29 30 31 32 33 34 35 36 37 38 39 40 41 42 43 44 45 46 47 48 49 50
407
ASUS43 KDTX 290310
RWRMI
MICHIGAN HOURLY REGIONAL WEATHER ROUNDUP
NATIONAL WEATHER SERVICE DETROIT/PONTIAC MI
1100 PM EDT SAT MAY 28 2016

NOTE: "FAIR" INDICATES FEW OR NO CLOUDS BELOW 12,000 FEET WITH NO
SIGNIFICANT WEATHER AND/OR OBSTRUCTION TO VISIBILITY.

MIZ047>049-052>055-059>063-066>070-074>076-081>083-290400-
SOUTHEAST LOWER MICHIGAN

CITY           SKY/WX    TMP DP  RH WIND       PRES   REMARKS
ADRIAN         CLOUDY    72  62  71 SW8       30.05F
ALMA           MOCLDY    71  64  78 S13       29.98R
ANN ARBOR      PTCLDY    76  64  66 SW9       30.04S
BAD AXE        CLEAR     73  66  80 S9        30.00S
CARO           PTCLDY    75  66  75 W9        30.01R
DETROIT CITY   PTCLDY    74  64  71 SW8       30.04S
DETROIT        CLOUDY    74  65  73 S8        30.04S
FLINT          PTCLDY    81  63  54 S10       30.01R
GROSSE ILE     PTCLDY    68  64  88 S7        30.04S
HILLSDALE      PTCLDY    69  62  77 S5        30.05S
HOWELL         MOCLDY    76  61  59 S8G17     30.03R

CITY           SKY/WX    TMP DP  RH WIND       PRES   REMARKS
JACKSON        CLOUDY    73  62  68 S9        30.03S
LAMBERTVILLE   PTCLDY    76  62  61 SW5       30.06S
LANSING        CLOUDY    70  64  81 S8        30.00F
LAPEER         FAIR      75  62  63 S8        30.02S
MASON          CLOUDY    76  64  66 S10       30.01S
MONROE         CLEAR     75  67  76 SW7       30.04S
PONTIAC        CLOUDY    76  63  64 S8        30.03R
PORT HOPE        N/A     75  67  76 S6        29.98S
PORT HURON     CLOUDY    72  64  78 S8        30.04R
TRI CITIES     MOCLDY    72  66  81 SE9       29.99R
MIDLAND        FAIR      70  67  90 SE3       29.97R
SAGINAW HB     CLOUDY    70  66  88 S7        29.99S
$$
MIZ043>046-050>051-056>058-064>065-071>073-077>080-290400-
SOUTHWEST LOWER MICHIGAN

CITY           SKY/WX    TMP DP  RH WIND       PRES   REMARKS
BATTLE CREEK   CLOUDY    73  63  70 S12G23    30.00S
BENTON HARBOR  CLOUDY    76  61  59 S9G17     29.95R
BIG RAPIDS     CLEAR     65  65  97 CALM      29.95S
COLDWATER      CLOUDY    73  64  72 S6        30.01F
FREMONT        FAIR      67  67 100 CALM      29.94R
HOLLAND        CLEAR     71  62  73 S7        29.95R
GRAND RAPIDS   PTCLDY    73  62  68 S8        29.96R
IONIA          MOCLDY    74  60  60 S8        29.97S
KALAMAZOO      CLOUDY    74  62  66 S12       29.99R
LUDINGTON      CLEAR     72  64  74 S8        29.92R
MARSHALL       CLOUDY    73  63  71 S5        30.00F
MOUNT PLEASANT PTCLDY    75  62  64 SE6       29.96S
MUSKEGON       PTCLDY    72  61  68 S7        29.93S
SOUTH HAVEN    CLEAR     74  62  65 S8        29.95S
$$
MIZ016>042-290400-
NORTHERN LOWER MICHIGAN

CITY           SKY/WX    TMP DP  RH WIND       PRES   REMARKS
ALPENA         PTCLDY    71  64  78 S3        29.95S
BEAVER ISLAND  CLOUDY    68  61  78 S7        29.90S
BELLAIRE       CLOUDY    72  62  69 CALM      29.92S
CADILLAC       CLEAR     68  62  82 S3        29.96S
CHARLEVOIX     CLOUDY    73  62  67 S7        29.94F
FRANKFORT      CLEAR     71  64  76 SE7       29.90S
GAYLORD        PTCLDY    72  61  68 SW7       29.96S
GRAYLING       MOCLDY    69  65  88 CALM      29.97S
HARBOR SPRINGS CLOUDY    73  64  73 CALM      29.92S
HOUGHTON LAKE  CLEAR     67  63  87 CALM      29.97S
MANISTEE       CLEAR     72  61  68 S6        29.92S
OSCODA         PTCLDY    76  60  57 S13       29.96R
PELLSTON       CLOUDY    71  64  78 CALM      29.92S
ROGERS CITY    CLOUDY    65  61  86 CALM      29.95S
TRAVERSE CITY  CLEAR     74  62  66 VRB3      29.90S
$$
MIZ007>008-015-290400-
EASTERN UPPER MICHIGAN

CITY           SKY/WX    TMP DP  RH WIND       PRES   REMARKS
KINROSS          N/A     70  63  78 S3        29.92F
MACKINAC ISLAN CLOUDY    63  59  87 CALM      29.92S
NEWBERRY       CLEAR     65  62  88 S13       29.90S
S. S. MARIE    MOCLDY    68  63  84 SE5       29.91F
MUNISING         N/A     66  60  81 S8        29.84R
$$
MIZ004>006-011>014-085-290400-
CENTRAL UPPER MICHIGAN

CITY           SKY/WX    TMP DP  RH WIND       PRES   REMARKS
MANISTIQUE     CLEAR     57  56  97 S3        29.88F FOG
ESCANABA       CLEAR     63  57  82 S7        29.85S
MENOMINEE      CLOUDY    72  63  73 SW16      29.85R
SAWYER-GWINN   CLEAR     66  62  87 S9        29.85R
$$
MIZ001>003-009>011-084-290400-
WESTERN UPPER MICHIGAN

CITY           SKY/WX    TMP DP  RH WIND       PRES   REMARKS
IRON MOUNTAIN  CLOUDY    69  63  81 SE7       29.82R
HOUGHTON       CLOUDY    55  53  93 NW8       29.79F
COPPER HARBOR    N/A     46  46 100 N3        29.79R
IRONWOOD       CLOUDY    55  55 100 E3        29.79S VSB 1/4
$$

ABBREVIATIONS USED IN REMARKS
   TC - TEMPERATURE IN CELSIUS
  WCI - WIND CHILL INDEX
   HX - HEAT INDEX
  VSB - VISIBILITY





USA.gov is the U.S. government's official web portal to all federal, state and local government web resources and services.